Date String (YYYY-MM-DD hh:mm:ss) UTC,Instrument flags,absolute air pressure of the measurement (hPa),sample flow rate (lpm),inlet stack bypass flow (lpm),air temperature of the measurement (°C),ambient temperature measured by the external sensor (°C),aerosol sample conditioner tube jacket temperature (°C),OPC LED temperature (°C),internal box temperature (°C),relative humidity of the measurement (%),span deviation,mass concentration of particles derived from Lorenz-Mie calculation of OPC scattering (μg/m³),mass concentration of particles derived from Lorenz-Mie calculation of OPC scattering (μg/m³),mass concentration of particles derived from Lorenz-Mie calculation of OPC scattering (μg/m³)
DateTimeUTC,F1_M11,P_M11,Q1_M11,Q2_M11,T1_M11,T2_M11,T3_M11,T4_M11,T5_M11,U1_M11,ZSPAN_M11,X0_M11,X2_M11,X1_M11
2024-04-04 03:00:00,SystemResetWarning,0828.1,4.99,000.00,025.9,025.2,000.0,034.5,027.7,010.9,0000.0,0004.79,0002.02,0001.51
2024-04-04 03:01:00,SystemResetWarning,0828.1,5.00,000.00,025.9,025.2,000.0,034.5,027.8,010.9,0000.0,0004.74,0002.01,0001.51
2024-04-04 03:02:00,SystemResetWarning,0828.1,5.02,000.00,025.9,025.2,000.0,034.5,027.7,010.8,0000.0,0003.17,0001.97,0001.52
2024-04-04 03:03:00,SystemResetWarning,0828.1,5.00,000.00,025.9,025.2,000.0,034.5,027.8,010.8,0000.0,0003.11,0001.99,0001.53
2024-04-04 03:04:00,SystemResetWarning,0828.1,4.99,000.00,025.9,025.2,000.0,034.5,027.8,010.8,0000.0,0003.20,0002.03,0001.53
2024-04-04 03:05:00,SystemResetWarning,0828.0,5.00,000.00,025.9,025.2,000.0,034.5,027.8,010.9,0000.0,0003.70,0002.05,0001.54
2024-04-04 03:06:00,SystemResetWarning,0828.1,5.02,000.00,025.9,025.2,000.0,034.5,027.7,011.1,0000.0,0004.36,0002.05,0001.55
2024-04-04 03:07:00,SystemResetWarning,0828.1,5.00,000.00,025.9,025.2,000.0,034.5,027.7,011.0,0000.0,0004.36,0002.05,0001.56
2024-04-04 03:08:00,SystemResetWarning,0828.1,5.00,000.00,025.9,025.2,000.0,034.5,027.8,010.9,0000.0,0004.39,0002.06,0001.55
2024-04-04 03:09:00,SystemResetWarning,0828.0,4.99,000.00,025.9,025.2,000.0,034.5,027.7,010.9,0000.0,0004.24,0002.08,0001.55
2024-04-04 03:10:00,SystemResetWarning,0828.0,4.99,000.00,025.9,025.2,000.0,034.5,027.7,010.8,0000.0,0004.24,0002.07,0001.55
2024-04-04 03:11:00,SystemResetWarning,0828.1,5.02,000.00,025.9,025.1,000.0,034.5,027.7,010.6,0000.0,0004.21,0002.06,0001.55
2024-04-04 03:12:00,SystemResetWarning,0828.1,5.00,000.00,025.9,025.1,000.0,034.5,027.7,010.7,0000.0,0004.19,0002.05,0001.54
2024-04-04 03:13:00,SystemResetWarning,0828.1,4.99,000.00,025.9,025.1,000.0,034.5,027.7,010.7,0000.0,0004.25,0002.08,0001.54
2024-04-04 03:14:00,SystemResetWarning,0828.1,4.99,000.00,025.9,025.1,000.0,034.5,027.7,010.8,0000.0,0004.34,0002.10,0001.54
2024-04-04 03:15:00,SystemResetWarning,0828.1,5.01,000.00,025.9,025.1,000.0,034.5,027.7,010.7,0000.0,0004.33,0002.07,0001.53
2024-04-04 03:16:00,SystemResetWarning,0828.1,5.01,000.00,025.9,025.1,000.0,034.5,027.7,010.8,0000.0,0004.13,0002.02,0001.53
2024-04-04 03:17:00,SystemResetWarning,0828.1,4.99,000.00,025.9,025.1,000.0,034.5,027.7,010.8,0000.0,0003.16,0002.01,0001.52
2024-04-04 03:18:00,SystemResetWarning,0828.1,5.00,000.00,025.9,025.1,000.0,034.5,027.8,010.9,0000.0,0003.11,0002.00,0001.52
2024-04-04 03:19:00,SystemResetWarning,0828.1,4.99,000.00,025.9,025.1,000.0,034.5,027.8,010.8,0000.0,0003.07,0001.98,0001.52
2024-04-04 03:20:00,SystemResetWarning,0828.1,4.99,000.00,025.9,025.1,000.0,034.5,027.7,010.8,0000.0,0003.11,0002.00,0001.54
2024-04-04 03:21:00,SystemResetWarning,0828.1,4.99,000.00,025.9,025.1,000.0,034.5,027.7,011.0,0000.0,0003.11,0002.02,0001.54
2024-04-04 03:22:00,SystemResetWarning,0828.1,5.01,000.00,025.9,025.1,000.0,034.5,027.7,011.1,0000.0,0003.09,0002.02,0001.54
2024-04-04 03:23:00,SystemResetWarning,0828.1,5.00,000.00,025.9,025.1,000.0,034.5,027.7,010.9,0000.0,0003.47,0002.04,0001.55
2024-04-04 03:24:00,SystemResetWarning,0828.2,5.00,000.00,025.9,025.1,000.0,034.5,027.7,010.8,0000.0,0003.53,0002.06,0001.56
2024-04-04 03:25:00,SystemResetWarning,0828.2,5.00,000.00,025.9,025.1,000.0,034.5,027.7,011.0,0000.0,0003.50,0002.05,0001.57
2024-04-04 03:26:00,SystemResetWarning,0828.2,5.00,000.00,025.9,025.1,000.0,034.5,027.7,011.1,0000.0,0003.53,0002.07,0001.57
2024-04-04 03:27:00,SystemResetWarning,0828.2,5.00,000.00,025.9,025.1,000.0,034.5,027.7,010.9,0000.0,0003.55,0002.07,0001.57
2024-04-04 03:28:00,SystemResetWarning,0828.1,5.00,000.00,025.9,025.1,000.0,034.5,027.7,010.8,0000.0,0003.53,0002.06,0001.57
2024-04-04 03:29:00,SystemResetWarning,0828.1,5.00,000.00,025.9,025.1,000.0,034.5,027.7,011.0,0000.0,0003.60,0002.07,0001.58
2024-04-04 03:30:00,SystemResetWarning,0828.1,5.00,000.00,025.9,025.1,000.0,034.5,027.7,011.1,0000.0,0003.67,0002.10,0001.58
2024-04-04 03:31:00,SystemResetWarning,0828.1,5.00,000.00,025.9,025.1,000.0,034.5,027.7,010.9,0000.0,0003.62,0002.07,0001.56
2024-04-04 03:32:00,SystemResetWarning,0828.1,5.00,000.00,025.9,025.1,000.0,034.5,027.7,010.7,0000.0,0003.66,0002.09,0001.57
2024-04-04 03:33:00,SystemResetWarning,0828.1,5.00,000.00,025.9,025.1,000.0,034.5,027.7,010.6,0000.0,0003.56,0002.04,0001.56
2024-04-04 03:34:00,SystemResetWarning,0828.1,5.00,000.00,025.9,025.1,000.0,034.5,027.7,010.9,0000.0,0003.41,0002.07,0001.57
2024-04-04 03:35:00,SystemResetWarning,0828.1,5.00,000.00,025.9,025.1,000.0,034.5,027.7,010.7,0000.0,0003.47,0002.08,0001.55
2024-04-04 03:36:00,SystemResetWarning,0828.1,5.00,000.00,025.9,025.1,000.0,034.5,027.7,010.7,0000.0,0003.36,0002.05,0001.53
2024-04-04 03:37:00,SystemResetWarning,0828.1,5.00,000.00,025.9,025.1,000.0,034.5,027.7,010.6,0000.0,0003.34,0002.04,0001.52
2024-04-04 03:38:00,SystemResetWarning,0828.1,5.00,000.00,025.9,025.0,000.0,034.5,027.7,010.5,0000.0,0003.36,0002.04,0001.52
2024-04-04 03:39:00,SystemResetWarning,0828.1,5.00,000.00,025.9,025.0,000.0,034.5,027.7,010.3,0000.0,0003.53,0002.09,0001.50
2024-04-04 03:40:00,SystemResetWarning,0828.1,5.00,000.00,025.9,025.0,000.0,034.5,027.7,010.5,0000.0,0003.36,0002.05,0001.50
2024-04-04 03:41:00,SystemResetWarning,0828.1,5.00,000.00,025.8,025.0,000.0,034.5,027.7,010.5,0000.0,0003.29,0002.03,0001.49
2024-04-04 03:42:00,SystemResetWarning,0828.1,5.00,000.00,025.8,025.0,000.0,034.5,027.7,010.6,0000.0,0003.36,0002.02,0001.48
2024-04-04 03:43:00,SystemResetWarning,0828.1,5.00,000.00,025.8,025.0,000.0,034.5,027.7,010.7,0000.0,0003.27,0001.97,0001.47
2024-04-04 03:44:00,SystemResetWarning,0828.1,5.00,000.00,025.8,025.0,000.0,034.5,027.7,010.8,0000.0,0003.27,0001.97,0001.48
2024-04-04 03:45:00,SystemResetWarning,0828.1,5.00,000.00,025.8,025.0,000.0,034.5,027.7,010.9,0000.0,0003.19,0001.95,0001.47
2024-04-04 03:46:00,SystemResetWarning,0828.1,5.00,000.00,025.8,025.0,000.0,034.5,027.6,010.9,0000.0,0002.93,0001.88,0001.47
2024-04-04 03:47:00,SystemResetWarning,0828.1,5.00,000.00,025.8,025.0,000.0,034.4,027.7,011.0,0000.0,0002.95,0001.89,0001.48
2024-04-04 03:48:00,SystemResetWarning,0828.0,5.00,000.00,025.8,025.0,000.0,034.4,027.7,011.1,0000.0,0002.99,0001.90,0001.50
2024-04-04 03:49:00,SystemResetWarning,0828.1,5.01,000.00,025.8,025.0,000.0,034.4,027.6,011.1,0000.0,0002.95,0001.89,0001.50
2024-04-04 03:50:00,SystemResetWarning,0828.1,5.00,000.00,025.8,025.0,000.0,034.4,027.7,010.9,0000.0,0002.78,0001.85,0001.50
2024-04-04 03:51:00,SystemResetWarning,0828.1,5.00,000.00,025.8,025.0,000.0,034.4,027.7,010.5,0000.0,0002.84,0001.82,0001.49
2024-04-04 03:52:00,SystemResetWarning,0828.1,5.00,000.00,025.8,025.0,000.0,034.4,027.6,010.5,0000.0,0003.31,0001.86,0001.49
2024-04-04 03:53:00,SystemResetWarning,0828.1,4.99,000.00,025.8,025.0,000.0,034.4,027.6,010.5,0000.0,0003.30,0001.88,0001.49
2024-04-04 03:54:00,SystemResetWarning,0828.1,5.00,000.00,025.8,025.0,000.0,034.4,027.6,010.3,0000.0,0003.33,0001.90,0001.49
2024-04-04 03:55:00,SystemResetWarning,0828.1,5.00,000.00,025.8,025.0,000.0,034.4,027.6,010.1,0000.0,0003.51,0001.93,0001.47
2024-04-04 03:56:00,SystemResetWarning,0828.1,5.00,000.00,025.8,024.9,000.0,034.4,027.6,010.4,0000.0,0003.56,0001.94,0001.45
2024-04-04 03:57:00,SystemResetWarning,0828.1,5.00,000.00,025.8,024.9,000.0,034.4,027.6,010.6,0000.0,0003.61,0001.95,0001.45
2024-04-04 03:58:00,SystemResetWarning,0828.1,5.01,000.00,025.8,024.9,000.0,034.4,027.6,010.7,0000.0,0003.74,0002.00,0001.45
2024-04-04 03:59:00,SystemResetWarning,0828.0,5.01,000.00,025.8,024.9,000.0,034.4,027.6,010.7,0000.0,0003.63,0002.00,0001.44
